Time,TemperatureF,DewpointF,PressureIn,WindDirection,WindDirectionDegrees,WindSpeedMPH,WindSpeedGustMPH,Humidity,HourlyPrecipIn,Conditions,Clouds,dailyrainin,SoftwareType,DateUTC
2013-04-25 00:02:00,34.0,8.0,-100.00,South,189,26.0,30.0,32,0.00,,,-99.99,,2013-04-25 06:02:00,
2013-04-25 00:11:00,34.0,8.0,-100.00,South,191,26.0,30.0,33,0.00,,,-99.99,,2013-04-25 06:11:00,
2013-04-25 00:22:00,34.0,7.0,-100.00,SSW,192,26.0,31.0,32,0.00,,,-99.99,,2013-04-25 06:22:00,
2013-04-25 00:31:00,33.0,8.0,-100.00,South,189,24.0,30.0,33,0.00,,,-99.99,,2013-04-25 06:31:00,
2013-04-25 00:41:00,34.0,7.0,-100.00,SSW,192,26.0,29.0,32,0.00,,,-99.99,,2013-04-25 06:41:00,
2013-04-25 00:52:00,34.0,8.0,-100.00,SSW,195,26.0,30.0,33,0.00,,,-99.99,,2013-04-25 06:52:00,
2013-04-25 01:02:00,34.0,6.0,-100.00,SSW,195,24.0,30.0,30,0.00,,,-99.99,,2013-04-25 07:02:00,
2013-04-25 01:11:00,34.0,6.0,-100.00,SSW,193,23.0,28.0,31,0.00,,,-99.99,,2013-04-25 07:11:00,
2013-04-25 01:22:00,34.0,5.0,-100.00,SSW,205,21.0,26.0,29,0.00,,,-99.99,,2013-04-25 07:22:00,
2013-04-25 01:32:00,34.0,6.0,-100.00,SSW,200,22.0,29.0,30,0.00,,,-99.99,,2013-04-25 07:32:00,
2013-04-25 01:42:00,34.0,6.0,-100.00,SSW,200,22.0,29.0,30,0.00,,,-99.99,,2013-04-25 07:42:00,
2013-04-25 01:52:00,34.0,6.0,-100.00,SSW,200,23.0,29.0,29,0.00,,,-99.99,,2013-04-25 07:52:00,
2013-04-25 02:01:00,35.0,6.0,-100.00,SSW,202,23.0,28.0,29,0.00,,,-99.99,,2013-04-25 08:01:00,
2013-04-25 02:11:00,34.0,5.0,-100.00,SSW,202,23.0,28.0,29,0.00,,,-99.99,,2013-04-25 08:11:00,
2013-04-25 02:21:00,34.0,6.0,-100.00,SSW,199,22.0,27.0,31,0.00,,,-99.99,,2013-04-25 08:21:00,
2013-04-25 02:31:00,34.0,4.0,-100.00,SSW,203,22.0,28.0,28,0.00,,,-99.99,,2013-04-25 08:31:00,
2013-04-25 02:41:00,34.0,6.0,-100.00,SSW,205,23.0,29.0,30,0.00,,,-99.99,,2013-04-25 08:41:00,
2013-04-25 02:51:00,33.0,6.0,-100.00,SSW,206,22.0,29.0,31,0.00,,,-99.99,,2013-04-25 08:51:00,
2013-04-25 03:01:00,33.0,7.0,-100.00,SSW,203,24.0,29.0,32,0.00,,,-99.99,,2013-04-25 09:01:00,
2013-04-25 03:11:00,33.0,7.0,-100.00,SSW,203,24.0,29.0,32,0.00,,,-99.99,,2013-04-25 09:11:00,
2013-04-25 03:21:00,34.0,7.0,-100.00,SSW,206,26.0,29.0,32,0.00,,,-99.99,,2013-04-25 09:21:00,
2013-04-25 03:33:00,34.0,6.0,-100.00,SSW,205,23.0,30.0,30,0.00,,,-99.99,,2013-04-25 09:33:00,
2013-04-25 03:42:00,34.0,6.0,-100.00,SSW,203,19.0,24.0,30,0.00,,,-99.99,,2013-04-25 09:42:00,
2013-04-25 03:52:00,33.0,6.0,-100.00,SSW,203,22.0,29.0,30,0.00,,,-99.99,,2013-04-25 09:52:00,
2013-04-25 04:02:00,33.0,6.0,-100.00,SSW,205,24.0,29.0,31,0.00,,,-99.99,,2013-04-25 10:02:00,
2013-04-25 04:12:00,33.0,7.0,-100.00,SSW,203,22.0,27.0,32,0.00,,,-99.99,,2013-04-25 10:12:00,
2013-04-25 04:22:00,33.0,5.0,-100.00,SSW,200,22.0,27.0,29,0.00,,,-99.99,,2013-04-25 10:22:00,
2013-04-25 04:32:00,34.0,4.0,-100.00,SSW,198,24.0,30.0,27,0.00,,,-99.99,,2013-04-25 10:32:00,
2013-04-25 04:42:00,33.0,6.0,-100.00,SSW,193,22.0,27.0,31,0.00,,,-99.99,,2013-04-25 10:42:00,
2013-04-25 04:52:00,33.0,5.0,-100.00,SSW,192,19.0,25.0,30,0.00,,,-99.99,,2013-04-25 10:52:00,
2013-04-25 05:02:00,34.0,5.0,-100.00,SSW,195,22.0,27.0,30,0.00,,,-99.99,,2013-04-25 11:02:00,
2013-04-25 05:12:00,33.0,5.0,-100.00,SSW,195,22.0,27.0,29,0.00,,,-99.99,,2013-04-25 11:12:00,
2013-04-25 05:22:00,33.0,6.0,-100.00,SSW,192,20.0,27.0,31,0.00,,,-99.99,,2013-04-25 11:22:00,
2013-04-25 05:32:00,33.0,5.0,-100.00,SSW,195,23.0,28.0,31,0.00,,,-99.99,,2013-04-25 11:32:00,
2013-04-25 05:42:00,33.0,6.0,-100.00,SSW,198,26.0,32.0,31,0.00,,,-99.99,,2013-04-25 11:42:00,
2013-04-25 05:51:00,33.0,5.0,-100.00,SSW,198,26.0,32.0,31,0.00,,,-99.99,,2013-04-25 11:51:00,
2013-04-25 06:01:00,32.0,4.0,-100.00,SSW,193,24.0,29.0,29,0.00,,,-99.99,,2013-04-25 12:01:00,
2013-04-25 06:12:00,32.0,5.0,-100.00,SSW,192,23.0,27.0,31,0.00,,,-99.99,,2013-04-25 12:12:00,
2013-04-25 06:21:00,32.0,5.0,-100.00,SSW,193,26.0,29.0,32,0.00,,,-99.99,,2013-04-25 12:21:00,
2013-04-25 06:32:00,33.0,6.0,-100.00,SSW,199,24.0,29.0,32,0.00,,,-99.99,,2013-04-25 12:32:00,
2013-04-25 06:41:00,33.0,5.0,-100.00,SSW,199,23.0,27.0,30,0.00,,,-99.99,,2013-04-25 12:41:00,
2013-04-25 06:51:00,33.0,6.0,-100.00,SSW,196,22.0,30.0,32,0.00,,,-99.99,,2013-04-25 12:51:00,
2013-04-25 07:02:00,33.0,4.0,-100.00,SSW,196,21.0,27.0,29,0.00,,,-99.99,,2013-04-25 13:02:00,
2013-04-25 07:11:00,33.0,5.0,-100.00,SSW,195,21.0,26.0,30,0.00,,,-99.99,,2013-04-25 13:11:00,
2013-04-25 07:21:00,34.0,5.0,-100.00,SSW,198,19.0,23.0,29,0.00,,,-99.99,,2013-04-25 13:21:00,
2013-04-25 07:32:00,34.0,4.0,-100.00,SSW,199,21.0,25.0,27,0.00,,,-99.99,,2013-04-25 13:32:00,
2013-04-25 07:42:00,35.0,4.0,-100.00,SSW,196,17.0,24.0,27,0.00,,,-99.99,,2013-04-25 13:42:00,
2013-04-25 07:52:00,35.0,5.0,-100.00,SSW,196,14.0,21.0,27,0.00,,,-99.99,,2013-04-25 13:52:00,
2013-04-25 08:02:00,35.0,4.0,-100.00,SSW,193,13.0,18.0,26,0.00,,,-99.99,,2013-04-25 14:02:00,
2013-04-25 08:11:00,36.0,5.0,-100.00,SSW,196,14.0,18.0,27,0.00,,,-99.99,,2013-04-25 14:11:00,
2013-04-25 08:21:00,36.0,8.0,-100.00,SSW,203,14.0,18.0,30,0.00,,,-99.99,,2013-04-25 14:21:00,
2013-04-25 08:32:00,37.0,7.0,-100.00,SSW,202,15.0,19.0,28,0.00,,,-99.99,,2013-04-25 14:32:00,
2013-04-25 08:42:00,37.0,6.0,-100.00,SSW,203,16.0,21.0,27,0.00,,,-99.99,,2013-04-25 14:42:00,
2013-04-25 08:51:00,37.0,9.0,-100.00,SSW,210,15.0,21.0,31,0.00,,,-99.99,,2013-04-25 14:51:00,
2013-04-25 09:02:00,37.0,8.0,-100.00,SSW,210,17.0,26.0,29,0.00,,,-99.99,,2013-04-25 15:02:00,
2013-04-25 09:11:00,37.0,9.0,-100.00,SSW,209,21.0,27.0,30,0.00,,,-99.99,,2013-04-25 15:11:00,
2013-04-25 09:21:00,37.0,11.0,-100.00,SSW,210,21.0,27.0,34,0.00,,,-99.99,,2013-04-25 15:21:00,
2013-04-25 09:33:00,37.0,10.0,-100.00,SSW,212,20.0,27.0,32,0.00,,,-99.99,,2013-04-25 15:33:00,
2013-04-25 09:42:00,38.0,11.0,-100.00,SSW,212,19.0,24.0,32,0.00,,,-99.99,,2013-04-25 15:42:00,
2013-04-25 09:52:00,38.0,11.0,-100.00,SW,216,18.0,23.0,32,0.00,,,-99.99,,2013-04-25 15:52:00,
2013-04-25 10:02:00,39.0,9.0,-100.00,SW,216,20.0,26.0,28,0.00,,,-99.99,,2013-04-25 16:02:00,
2013-04-25 10:13:00,39.0,10.0,-100.00,SW,215,21.0,27.0,30,0.00,,,-99.99,,2013-04-25 16:13:00,
2013-04-25 10:24:00,39.0,9.0,-100.00,SW,216,22.0,27.0,28,0.00,,,-99.99,,2013-04-25 16:24:00,
2013-04-25 10:32:00,40.0,11.0,-100.00,SW,217,23.0,29.0,30,0.00,,,-99.99,,2013-04-25 16:32:00,
2013-04-25 10:42:00,40.0,13.0,-100.00,SW,219,21.0,27.0,34,0.00,,,-99.99,,2013-04-25 16:42:00,
2013-04-25 10:52:00,40.0,11.0,-100.00,SW,220,24.0,30.0,30,0.00,,,-99.99,,2013-04-25 16:52:00,
2013-04-25 11:02:00,40.0,10.0,-100.00,SW,222,23.0,30.0,29,0.00,,,-99.99,,2013-04-25 17:02:00,
2013-04-25 11:11:00,41.0,11.0,-100.00,SW,223,23.0,30.0,29,0.00,,,-99.99,,2013-04-25 17:11:00,
2013-04-25 11:22:00,41.0,10.0,-100.00,SW,234,21.0,28.0,27,0.00,,,-99.99,,2013-04-25 17:22:00,
2013-04-25 11:32:00,41.0,12.0,-100.00,SW,236,21.0,24.0,30,0.00,,,-99.99,,2013-04-25 17:32:00,
2013-04-25 11:42:00,41.0,10.0,-100.00,WSW,239,21.0,25.0,28,0.00,,,-99.99,,2013-04-25 17:42:00,
2013-04-25 11:53:00,42.0,13.0,-100.00,WSW,241,19.0,25.0,30,0.00,,,-99.99,,2013-04-25 17:53:00,
2013-04-25 12:01:00,42.0,13.0,-100.00,WSW,241,17.0,22.0,30,0.00,,,-99.99,,2013-04-25 18:01:00,
2013-04-25 12:11:00,43.0,15.0,-100.00,WSW,243,14.0,20.0,32,0.00,,,-99.99,,2013-04-25 18:11:00,
2013-04-25 12:21:00,43.0,13.0,-100.00,WSW,247,17.0,23.0,29,0.00,,,-99.99,,2013-04-25 18:21:00,
2013-04-25 12:32:00,43.0,11.0,-100.00,WSW,243,17.0,24.0,27,0.00,,,-99.99,,2013-04-25 18:32:00,
2013-04-25 12:42:00,43.0,11.0,-100.00,WSW,241,18.0,25.0,26,0.00,,,-99.99,,2013-04-25 18:42:00,
2013-04-25 12:52:00,44.0,14.0,-100.00,WSW,250,19.0,24.0,30,0.00,,,-99.99,,2013-04-25 18:52:00,
2013-04-25 13:01:00,44.0,16.0,-100.00,WSW,251,18.0,25.0,32,0.00,,,-99.99,,2013-04-25 19:01:00,
2013-04-25 13:12:00,44.0,14.0,-100.00,WSW,251,19.0,26.0,29,0.00,,,-99.99,,2013-04-25 19:12:00,
2013-04-25 13:21:00,44.0,16.0,-100.00,WSW,253,21.0,29.0,31,0.00,,,-99.99,,2013-04-25 19:21:00,
2013-04-25 13:31:00,44.0,14.0,-100.00,WSW,251,21.0,29.0,29,0.00,,,-99.99,,2013-04-25 19:31:00,
2013-04-25 13:41:00,45.0,14.0,-100.00,WSW,247,19.0,25.0,28,0.00,,,-99.99,,2013-04-25 19:41:00,
2013-04-25 13:52:00,45.0,15.0,-100.00,WSW,237,19.0,28.0,29,0.00,,,-99.99,,2013-04-25 19:52:00,
2013-04-25 14:02:00,45.0,14.0,-100.00,WSW,241,20.0,28.0,29,0.00,,,-99.99,,2013-04-25 20:02:00,
2013-04-25 14:11:00,44.0,14.0,-100.00,WSW,243,21.0,29.0,29,0.00,,,-99.99,,2013-04-25 20:11:00,
2013-04-25 14:22:00,45.0,12.0,-100.00,WSW,243,21.0,29.0,26,0.00,,,-99.99,,2013-04-25 20:22:00,
2013-04-25 14:32:00,45.0,13.0,-100.00,WSW,241,21.0,29.0,27,0.00,,,-99.99,,2013-04-25 20:32:00,
2013-04-25 14:42:00,45.0,14.0,-100.00,WSW,243,21.0,29.0,28,0.00,,,-99.99,,2013-04-25 20:42:00,
2013-04-25 14:52:00,45.0,13.0,-100.00,WSW,243,21.0,29.0,27,0.00,,,-99.99,,2013-04-25 20:52:00,
2013-04-25 15:01:00,45.0,13.0,-100.00,WSW,239,24.0,30.0,27,0.00,,,-99.99,,2013-04-25 21:01:00,
2013-04-25 15:11:00,45.0,12.0,-100.00,WSW,239,24.0,30.0,26,0.00,,,-99.99,,2013-04-25 21:11:00,
2013-04-25 15:21:00,46.0,15.0,-100.00,WSW,241,23.0,30.0,29,0.00,,,-99.99,,2013-04-25 21:21:00,
2013-04-25 15:33:00,46.0,13.0,-100.00,WSW,237,22.0,30.0,27,0.00,,,-99.99,,2013-04-25 21:33:00,
2013-04-25 15:42:00,46.0,16.0,-100.00,WSW,239,22.0,29.0,29,0.00,,,-99.99,,2013-04-25 21:42:00,
2013-04-25 15:52:00,47.0,15.0,-100.00,WSW,248,21.0,26.0,27,0.00,,,-99.99,,2013-04-25 21:52:00,
2013-04-25 16:02:00,47.0,17.0,-100.00,WSW,253,21.0,28.0,30,0.00,,,-99.99,,2013-04-25 22:02:00,
2013-04-25 16:12:00,47.0,16.0,-100.00,WSW,253,20.0,28.0,28,0.00,,,-99.99,,2013-04-25 22:12:00,
2013-04-25 16:22:00,47.0,14.0,-100.00,WSW,246,19.0,27.0,26,0.00,,,-99.99,,2013-04-25 22:22:00,
2013-04-25 16:33:00,48.0,13.0,-100.00,WSW,247,19.0,27.0,24,0.00,,,-99.99,,2013-04-25 22:33:00,
2013-04-25 16:42:00,47.0,15.0,-100.00,WSW,243,20.0,26.0,26,0.00,,,-99.99,,2013-04-25 22:42:00,
2013-04-25 16:52:00,47.0,14.0,-100.00,WSW,239,18.0,25.0,26,0.00,,,-99.99,,2013-04-25 22:52:00,
2013-04-25 17:02:00,48.0,13.0,-100.00,SW,233,19.0,26.0,25,0.00,,,-99.99,,2013-04-25 23:02:00,
2013-04-25 17:12:00,47.0,15.0,-100.00,SW,234,20.0,26.0,27,0.00,,,-99.99,,2013-04-25 23:12:00,
2013-04-25 17:22:00,47.0,14.0,-100.00,SW,229,18.0,24.0,25,0.00,,,-99.99,,2013-04-25 23:22:00,
2013-04-25 17:32:00,48.0,14.0,-100.00,SW,227,17.0,22.0,26,0.00,,,-99.99,,2013-04-25 23:32:00,
2013-04-25 17:41:00,47.0,15.0,-100.00,SW,222,16.0,24.0,28,0.00,,,-99.99,,2013-04-25 23:41:00,
2013-04-25 17:52:00,47.0,17.0,-100.00,SW,219,18.0,21.0,31,0.00,,,-99.99,,2013-04-25 23:52:00,
2013-04-25 18:01:00,46.0,18.0,-100.00,SW,217,18.0,22.0,32,0.00,,,-99.99,,2013-04-26 00:01:00,
2013-04-25 18:11:00,46.0,18.0,-100.00,SW,219,17.0,22.0,32,0.00,,,-99.99,,2013-04-26 00:11:00,
2013-04-25 18:21:00,46.0,15.0,-100.00,SW,217,19.0,24.0,29,0.00,,,-99.99,,2013-04-26 00:21:00,
2013-04-25 18:31:00,46.0,17.0,-100.00,SW,217,19.0,24.0,31,0.00,,,-99.99,,2013-04-26 00:31:00,
2013-04-25 18:41:00,46.0,17.0,-100.00,SW,220,19.0,23.0,30,0.00,,,-99.99,,2013-04-26 00:41:00,
2013-04-25 18:51:00,45.0,15.0,-100.00,SW,219,18.0,23.0,29,0.00,,,-99.99,,2013-04-26 00:51:00,
2013-04-25 19:01:00,45.0,15.0,-100.00,SW,215,21.0,26.0,29,0.00,,,-99.99,,2013-04-26 01:01:00,
2013-04-25 19:11:00,45.0,14.0,-100.00,SSW,213,21.0,27.0,28,0.00,,,-99.99,,2013-04-26 01:11:00,
2013-04-25 19:21:00,45.0,15.0,-100.00,SW,215,21.0,24.0,30,0.00,,,-99.99,,2013-04-26 01:21:00,
2013-04-25 19:31:00,44.0,16.0,-100.00,SSW,213,19.0,24.0,31,0.00,,,-99.99,,2013-04-26 01:31:00,
2013-04-25 19:41:00,44.0,15.0,-100.00,SSW,212,19.0,25.0,30,0.00,,,-99.99,,2013-04-26 01:41:00,
2013-04-25 19:52:00,43.0,16.0,-100.00,SSW,213,18.0,21.0,33,0.00,,,-99.99,,2013-04-26 01:52:00,
2013-04-25 20:02:00,43.0,16.0,-100.00,SSW,209,17.0,21.0,32,0.00,,,-99.99,,2013-04-26 02:02:00,
2013-04-25 20:11:00,42.0,15.0,-100.00,SSW,209,17.0,21.0,33,0.00,,,-99.99,,2013-04-26 02:11:00,
2013-04-25 20:21:00,44.0,13.0,-100.00,SSW,200,17.0,21.0,28,0.00,,,-99.99,,2013-04-26 02:21:00,
2013-04-25 20:32:00,43.0,13.0,-100.00,SSW,198,18.0,22.0,30,0.00,,,-99.99,,2013-04-26 02:32:00,
2013-04-25 20:42:00,43.0,13.0,-100.00,SSW,195,17.0,20.0,30,0.00,,,-99.99,,2013-04-26 02:42:00,
2013-04-25 20:51:00,43.0,11.0,-100.00,SSW,195,16.0,19.0,27,0.00,,,-99.99,,2013-04-26 02:51:00,
2013-04-25 21:01:00,43.0,13.0,-100.00,SSW,195,17.0,21.0,29,0.00,,,-99.99,,2013-04-26 03:01:00,
2013-04-25 21:11:00,42.0,13.0,-100.00,SSW,196,18.0,22.0,29,0.00,,,-99.99,,2013-04-26 03:11:00,
2013-04-25 21:21:00,41.0,13.0,-100.00,SSW,196,18.0,20.0,31,0.00,,,-99.99,,2013-04-26 03:21:00,
2013-04-25 21:33:00,41.0,14.0,-100.00,SSW,200,17.0,20.0,33,0.00,,,-99.99,,2013-04-26 03:33:00,
2013-04-25 21:43:00,42.0,14.0,-100.00,SSW,206,17.0,20.0,32,0.00,,,-99.99,,2013-04-26 03:43:00,
2013-04-25 21:53:00,40.0,15.0,-100.00,SSW,209,16.0,19.0,36,0.00,,,-99.99,,2013-04-26 03:53:00,
2013-04-25 22:02:00,40.0,15.0,-100.00,SSW,206,16.0,18.0,35,0.00,,,-99.99,,2013-04-26 04:02:00,
2013-04-25 22:12:00,40.0,15.0,-100.00,SSW,203,16.0,17.0,34,0.00,,,-99.99,,2013-04-26 04:12:00,
2013-04-25 22:22:00,40.0,15.0,-100.00,SSW,200,17.0,19.0,36,0.00,,,-99.99,,2013-04-26 04:22:00,
2013-04-25 22:32:00,40.0,14.0,-100.00,SSW,200,17.0,20.0,33,0.00,,,-99.99,,2013-04-26 04:32:00,
2013-04-25 22:43:00,40.0,14.0,-100.00,SSW,205,16.0,19.0,35,0.00,,,-99.99,,2013-04-26 04:43:00,
2013-04-25 22:52:00,40.0,14.0,-100.00,SSW,209,16.0,19.0,35,0.00,,,-99.99,,2013-04-26 04:52:00,
2013-04-25 23:02:00,39.0,15.0,-100.00,SSW,210,16.0,19.0,38,0.00,,,-99.99,,2013-04-26 05:02:00,
2013-04-25 23:12:00,39.0,13.0,-100.00,SSW,212,16.0,20.0,34,0.00,,,-99.99,,2013-04-26 05:12:00,
2013-04-25 23:22:00,40.0,14.0,-100.00,SW,216,16.0,19.0,34,0.00,,,-99.99,,2013-04-26 05:22:00,
2013-04-25 23:32:00,41.0,12.0,-100.00,SW,219,16.0,19.0,31,0.00,,,-99.99,,2013-04-26 05:32:00,
2013-04-25 23:42:00,41.0,11.0,-100.00,SW,223,16.0,19.0,29,0.00,,,-99.99,,2013-04-26 05:42:00,
2013-04-25 23:52:00,42.0,11.0,-100.00,SW,229,14.0,17.0,29,0.00,,,-99.99,,2013-04-26 05:52:00,